Location: Bacharowice
(49.9333°N, 19.5833°E)
Time: 09:09:56
(UTC+00:00)

Cosmos 1666 - Pass Details

Date: 11 May 2021
Orbit: 496 x 519 km, 82.5° (Epoch: 21 June)

Event Time Altitude Azimuth Distance (km) Brightness Sun altitude
Rises 19:17:31 0° 358° (N) 2,605 7.0 -8.9°
Reaches altitude 10° 19:19:51 10° 10° (N) 1,713 5.8 -9.2°
Maximum altitude 19:23:09 29° 72° (ENE) 951 3.8 -9.6°
Enters shadow 19:25:44 14° 127° (SE) 1,466 4.3 -9.9°
